Terminal Aerodrome Forecast
Issued by NWS Blacksburg, VA

Home | Current Version | Previous Version | Text Only | Print | Product List | Glossary On
Versions: 1 2 3 4 5 6 7 8 9 10 11 12 13 14 15 16 17 18 19 20 21 22 23 24 25 26 27 28 29 30
000
FTUS41 KRNK 190520
TAFDAN
TAF
KDAN 190520Z 1906/2006 08003KT P6SM SCT035 BKN080
     FM190800 04005KT 6SM BR VCSH OVC035
     FM191000 04006KT 5SM BR OVC025
     FM191400 06008KT P6SM SCT015 OVC028
     FM191900 05005KT P6SM BKN030 BKN045
     FM200100 VRB03KT 6SM BR SCT020 BKN035=

USA.gov is the U.S. government's official web portal to all federal, state and local government web resources and services.